Lid_Strength_Index
4 6 7 6 6 6 6 7 8 6 5 6 6 6 5 4 4 5 4 4 5 4 3 2 2 1 1 1 1 1 1 1 1 1 1 1 1 1 0 -0 -1 -1 -1 -1
6 7 5 5 5 6 6 7 8 6 5 6 6 7 5 5 4 4 4 4 4 4 4 3 2 2 2 2 1 1 1 1 1 1 1 0 1 0 0 -1 -0 -0 -1 -1
7 6 5 6 6 7 7 7 7 8 6 6 6 7 6 5 4 4 4 3 3 4 4 4 3 2 2 2 2 1 1 1 0 -0 1 0 0 0 1 0 1 -0 -1 -1
6 5 6 6 7 6 8 6 6 7 8 10 6 11 8 6 5 5 4 4 4 3 3 3 3 3 2 2 1 1 1 1 0 -0 1 1 2 3 1 1 0 0 -0 -1
7 6 6 7 6 6 7 5 6 7 8 8 8 9 8 6 7 6 5 4 4 3 3 3 3 3 2 1 1 1 1 1 0 0 0 1 1 1 1 1 1 1 -0 -1
6 4 5 6 5 5 5 6 6 7 8 11 9 9 9 8 6 5 5 4 4 3 3 3 2 2 2 1 2 1 1 1 1 1 0 1 1 2 2 1 2 1 1 0
7 6 6 5 6 5 6 8 11 12 12 13 9 9 8 6 5 5 5 4 4 3 3 3 3 3 2 2 2 2 2 2 1 1 1 1 1 1 2 2 2 1 1 1
9 10 7 5 6 7 7 7 10 14 13 11 9 11 8 5 4 4 4 4 4 3 3 3 3 3 2 2 2 2 2 2 1 1 1 0 0 1 1 1 1 1 1 1
9 9 5 5 5 5 7 8 6 9 9 11 9 9 6 5 5 5 4 4 4 4 3 3 3 2 2 2 2 2 2 2 1 1 1 1 1 1 1 1 1 1 0 0
6 9 6 5 5 5 6 6 9 9 13 14 11 10 11 8 6 5 5 5 4 4 3 3 3 2 2 2 2 1 2 2 1 1 1 1 1 1 0 1 1 1 0 0
6 7 8 6 7 7 7 8 7 8 9 12 12 11 6 7 5 6 6 5 4 4 4 3 3 2 2 2 2 2 2 2 2 1 1 1 1 1 1 1 1 0 0 0
5 7 10 8 6 5 6 7 7 11 11 10 10 11 6 5 6 5 6 5 4 4 4 3 3 2 2 2 2 2 2 2 1 1 1 1 1 1 1 1 1 0 0 0
6 8 11 9 7 6 7 7 7 7 8 10 12 10 6 5 6 5 6 5 4 4 4 3 3 2 3 2 2 2 2 2 1 1 1 1 1 1 1 1 0 0 -0 0
4 7 9 11 9 7 9 8 7 8 10 11 10 9 8 8 7 7 6 5 4 4 4 4 3 3 2 2 2 2 2 2 1 1 1 2 1 1 1 1 1 1 0 0
6 9 8 7 7 7 7 8 8 8 8 9 8 9 7 7 8 7 5 5 5 4 4 4 4 3 3 2 2 2 1 2 1 2 2 2 1 1 1 1 1 0 0 0
5 9 8 9 7 7 8 7 7 7 7 7 7 8 5 5 5 7 7 5 5 5 4 4 3 3 3 2 2 2 2 1 1 2 2 1 2 1 1 1 1 1 1 1
7 8 9 11 8 8 10 8 7 7 6 7 9 6 6 6 6 5 5 5 5 4 4 4 3 3 3 2 2 2 2 1 2 2 2 2 1 2 1 1 1 1 1 1
7 7 8 11 9 14 8 5 6 7 6 6 6 7 6 6 5 4 4 5 4 4 4 3 3 3 2 2 2 1 2 2 2 2 2 2 2 2 1 1 1 1 1 1
5 7 9 11 12 9 8 6 7 8 8 6 7 6 6 5 5 5 4 4 4 3 3 3 2 2 2 2 2 1 2 2 2 2 2 2 2 2 2 2 2 1 1 1
6 6 9 10 13 14 9 6 5 5 10 6 6 6 6 5 9 7 4 3 3 3 2 2 2 2 2 2 2 2 2 2 3 2 2 1 1 2 2 2 2 1 1 1
8 9 11 10 11 9 7 6 5 11 11 5 5 5 5 7 5 4 3 3 3 2 2 2 2 2 2 1 2 3 2 3 2 1 1 1 1 1 1 1 1 1 1 1
9 10 11 10 12 14 6 6 9 7 5 5 4 4 5 4 4 4 3 3 3 3 2 2 2 2 2 1 2 3 3 2 1 1 2 2 1 1 1 1 1 1 2 2
10 8 10 9 10 6 4 5 4 4 5 5 5 4 4 4 4 3 3 3 3 2 2 2 2 2 2 1 2 3 2 2 1 2 2 2 1 1 1 2 2 2 2 2
6 5 8 8 6 6 5 4 4 4 4 4 3 3 3 4 4 4 4 3 3 2 2 2 2 2 2 2 1 2 1 1 2 2 2 2 2 2 2 1 1 2 2 2
7 6 8 8 6 6 5 4 4 4 4 4 3 3 3 4 4 3 4 3 3 2 2 2 2 2 2 2 2 1 1 2 2 2 2 2 2 2 2 2 2 2 1 2
6 8 9 10 6 7 6 4 4 4 5 4 4 4 3 4 4 3 4 3 3 3 2 2 2 2 2 2 2 2 1 1 2 2 3 2 2 2 2 2 3 12 11 12